Time,TemperatureF,DewpointF,PressureIn,WindDirection,WindDirectionDegrees,WindSpeedMPH,WindSpeedGustMPH,Humidity,HourlyPrecipIn,Conditions,Clouds,dailyrainin,SolarRadiationWatts/m^2,SoftwareType,DateUTC
2013-08-26 00:02:00,58.0,-99.9,-100.00,ESE,120,2.0,10.0,0,0.01,,,0.60,0.000000,,2013-08-26 07:02:00,
2013-08-26 00:42:00,58.0,-99.9,-100.00,ENE,57,1.0,8.0,0,0.00,,,0.60,0.000000,,2013-08-26 07:42:00,
2013-08-26 00:53:00,58.0,-99.9,-100.00,ENE,57,1.0,8.0,0,0.00,,,0.60,0.000000,,2013-08-26 07:53:00,
2013-08-26 01:02:00,58.0,-99.9,-100.00,ENE,57,1.0,8.0,0,0.00,,,0.60,0.000000,,2013-08-26 08:02:00,
2013-08-26 01:42:00,58.0,-99.9,-100.00,NNE,19,1.0,7.0,0,0.00,,,0.60,0.000000,,2013-08-26 08:42:00,
2013-08-26 01:52:00,58.0,-99.9,-100.00,NNE,19,1.0,7.0,0,0.00,,,0.60,0.000000,,2013-08-26 08:52:00,
2013-08-26 02:02:00,58.0,-99.9,-100.00,NNE,19,1.0,7.0,0,0.00,,,0.60,0.000000,,2013-08-26 09:02:00,
2013-08-26 02:03:00,56.0,-99.9,-100.00,ESE,103,3.0,7.0,0,0.03,,,0.63,0.000000,,2013-08-26 09:03:00,
2013-08-26 02:44:00,56.0,-99.9,-100.00,ESE,103,3.0,7.0,0,0.03,,,0.63,0.000000,,2013-08-26 09:44:00,
2013-08-26 02:54:00,56.0,-99.9,-100.00,ESE,103,3.0,7.0,0,0.03,,,0.63,0.000000,,2013-08-26 09:54:00,
2013-08-26 03:42:00,57.0,-99.9,-100.00,SE,142,0.0,10.0,0,0.00,,,0.63,0.000000,,2013-08-26 10:42:00,
2013-08-26 03:52:00,57.0,-99.9,-100.00,SE,142,0.0,10.0,0,0.00,,,0.63,0.000000,,2013-08-26 10:52:00,
2013-08-26 04:02:00,57.0,-99.9,-100.00,SE,142,0.0,10.0,0,0.00,,,0.63,0.000000,,2013-08-26 11:02:00,
2013-08-26 04:42:00,55.0,-99.9,-100.00,NE,35,1.0,8.0,0,0.00,,,0.63,0.000000,,2013-08-26 11:42:00,
2013-08-26 04:52:00,55.0,-99.9,-100.00,NE,35,1.0,8.0,0,0.00,,,0.63,0.000000,,2013-08-26 11:52:00,
2013-08-26 05:01:00,55.0,-99.9,-100.00,NE,35,1.0,8.0,0,0.00,,,0.63,0.000000,,2013-08-26 12:01:00,
2013-08-26 05:42:00,57.0,-99.9,-100.00,NW,314,0.0,7.0,0,0.01,,,0.63,0.000000,,2013-08-26 12:42:00,
2013-08-26 05:52:00,57.0,-99.9,-100.00,NW,314,0.0,7.0,0,0.01,,,0.63,0.000000,,2013-08-26 12:52:00,
2013-08-26 06:02:00,57.0,-99.9,-100.00,NW,314,0.0,7.0,0,0.01,,,0.63,0.000000,,2013-08-26 13:02:00,
2013-08-26 06:42:00,57.0,-99.9,-100.00,East,100,1.0,7.0,0,0.00,,,0.62,0.000000,,2013-08-26 13:42:00,
2013-08-26 06:52:00,57.0,-99.9,-100.00,East,100,1.0,7.0,0,0.00,,,0.62,0.000000,,2013-08-26 13:52:00,
2013-08-26 07:02:00,57.0,-99.9,-100.00,East,100,1.0,7.0,0,0.00,,,0.62,0.000000,,2013-08-26 14:02:00,
2013-08-26 07:42:00,58.0,-99.9,-100.00,SE,132,1.0,9.0,0,0.00,,,0.58,19.000000,,2013-08-26 14:42:00,
2013-08-26 07:52:00,58.0,-99.9,-100.00,SE,132,1.0,9.0,0,0.00,,,0.58,19.000000,,2013-08-26 14:52:00,
2013-08-26 08:01:00,58.0,-99.9,-100.00,SE,132,1.0,9.0,0,0.00,,,0.58,19.000000,,2013-08-26 15:01:00,
2013-08-26 08:03:00,59.0,-99.9,-100.00,SSE,147,2.0,8.0,0,0.00,,,0.57,106.000000,,2013-08-26 15:03:00,
2013-08-26 08:22:00,59.0,-99.9,-100.00,SSE,147,2.0,8.0,0,0.00,,,0.57,106.000000,,2013-08-26 15:22:00,
2013-08-26 08:35:00,59.0,-99.9,-100.00,SSE,147,2.0,8.0,0,0.00,,,0.57,106.000000,,2013-08-26 15:35:00,
2013-08-26 08:47:00,59.0,-99.9,-100.00,SSE,147,2.0,8.0,0,0.00,,,0.57,106.000000,,2013-08-26 15:47:00,
2013-08-26 08:59:00,59.0,-99.9,-100.00,SSE,147,2.0,8.0,0,0.00,,,0.57,106.000000,,2013-08-26 15:59:00,
2013-08-26 09:03:00,65.0,-99.9,-100.00,ESE,119,8.0,10.0,0,0.00,,,0.35,572.000000,,2013-08-26 16:03:00,
2013-08-26 09:48:00,65.0,-99.9,-100.00,ESE,119,8.0,10.0,0,0.00,,,0.35,572.000000,,2013-08-26 16:48:00,
2013-08-26 09:59:00,65.0,-99.9,-100.00,ESE,119,8.0,10.0,0,0.00,,,0.35,572.000000,,2013-08-26 16:59:00,
2013-08-26 10:43:00,69.0,-99.9,-100.00,SE,138,8.0,15.0,0,0.00,,,0.35,766.000000,,2013-08-26 17:43:00,
2013-08-26 10:53:00,69.0,-99.9,-100.00,SE,138,8.0,15.0,0,0.00,,,0.35,766.000000,,2013-08-26 17:53:00,
2013-08-26 11:02:00,69.0,-99.9,-100.00,SE,138,8.0,15.0,0,0.00,,,0.35,766.000000,,2013-08-26 18:02:00,
2013-08-26 12:42:00,72.0,-99.9,-100.00,SSE,163,4.0,13.0,0,-99.99,,,0.35,371.000000,,2013-08-26 19:42:00,
2013-08-26 13:43:00,72.0,-99.9,-100.00,South,172,13.0,20.0,0,-99.99,,,0.33,764.000000,,2013-08-26 20:43:00,
2013-08-26 13:52:00,72.0,-99.9,-100.00,South,172,13.0,20.0,0,-99.99,,,0.33,764.000000,,2013-08-26 20:52:00,
2013-08-26 14:02:00,72.0,-99.9,-100.00,South,172,13.0,20.0,0,-99.99,,,0.33,764.000000,,2013-08-26 21:02:00,
2013-08-26 14:03:00,72.0,-99.9,-100.00,SSW,192,9.0,28.0,0,-99.99,,,0.28,736.000000,,2013-08-26 21:03:00,
2013-08-26 14:45:00,72.0,-99.9,-100.00,SSW,192,9.0,28.0,0,-99.99,,,0.28,736.000000,,2013-08-26 21:45:00,
2013-08-26 14:55:00,72.0,-99.9,-100.00,SSW,192,9.0,28.0,0,-99.99,,,0.28,736.000000,,2013-08-26 21:55:00,
2013-08-26 15:03:00,71.0,-99.9,-100.00,South,178,7.0,20.0,0,0.00,,,0.20,374.000000,,2013-08-26 22:03:00,
2013-08-26 15:43:00,71.0,-99.9,-100.00,South,178,7.0,20.0,0,0.00,,,0.20,374.000000,,2013-08-26 22:43:00,
2013-08-26 15:53:00,71.0,-99.9,-100.00,South,178,7.0,20.0,0,0.00,,,0.20,374.000000,,2013-08-26 22:53:00,
2013-08-26 16:22:00,68.0,-99.9,-100.00,SE,135,7.0,14.0,0,0.00,,,0.17,439.000000,,2013-08-26 23:22:00,
2013-08-26 16:34:00,68.0,-99.9,-100.00,SE,135,7.0,14.0,0,0.00,,,0.17,439.000000,,2013-08-26 23:34:00,
2013-08-26 16:42:00,68.0,-99.9,-100.00,SE,135,7.0,14.0,0,0.00,,,0.17,439.000000,,2013-08-26 23:42:00,
2013-08-26 16:52:00,68.0,-99.9,-100.00,SE,135,7.0,14.0,0,0.00,,,0.17,439.000000,,2013-08-26 23:52:00,
2013-08-26 17:01:00,68.0,-99.9,-100.00,SE,135,7.0,14.0,0,0.00,,,0.17,439.000000,,2013-08-27 00:01:00,
2013-08-26 17:22:00,67.0,-99.9,-100.00,SE,141,1.0,19.0,0,0.00,,,0.17,76.000000,,2013-08-27 00:22:00,
2013-08-26 17:32:00,67.0,-99.9,-100.00,SE,141,1.0,19.0,0,0.00,,,0.17,76.000000,,2013-08-27 00:32:00,
2013-08-26 17:42:00,67.0,-99.9,-100.00,SE,141,1.0,19.0,0,0.00,,,0.17,76.000000,,2013-08-27 00:42:00,
2013-08-26 17:52:00,67.0,-99.9,-100.00,SE,141,1.0,19.0,0,0.00,,,0.17,76.000000,,2013-08-27 00:52:00,
2013-08-26 18:02:00,67.0,-99.9,-100.00,SE,141,1.0,19.0,0,0.00,,,0.17,76.000000,,2013-08-27 01:02:00,
2013-08-26 18:42:00,63.0,-99.9,-100.00,SSE,158,2.0,5.0,0,0.00,,,0.17,32.000000,,2013-08-27 01:42:00,
2013-08-26 18:52:00,63.0,-99.9,-100.00,SSE,158,2.0,5.0,0,0.00,,,0.17,32.000000,,2013-08-27 01:52:00,
2013-08-26 19:02:00,63.0,-99.9,-100.00,SSE,158,2.0,5.0,0,0.00,,,0.17,32.000000,,2013-08-27 02:02:00,
2013-08-26 19:43:00,62.0,-99.9,-100.00,North,354,3.0,5.0,0,0.00,,,0.17,39.000000,,2013-08-27 02:43:00,
2013-08-26 19:52:00,62.0,-99.9,-100.00,North,354,3.0,5.0,0,0.00,,,0.17,39.000000,,2013-08-27 02:52:00,
2013-08-26 20:02:00,62.0,-99.9,-100.00,North,354,3.0,5.0,0,0.00,,,0.17,39.000000,,2013-08-27 03:02:00,
2013-08-26 20:03:00,60.0,-99.9,-100.00,WSW,238,0.0,6.0,0,0.00,,,0.17,0.000000,,2013-08-27 03:03:00,
2013-08-26 20:45:00,60.0,-99.9,-100.00,WSW,238,0.0,6.0,0,0.00,,,0.17,0.000000,,2013-08-27 03:45:00,
2013-08-26 20:58:00,60.0,-99.9,-100.00,WSW,238,0.0,6.0,0,0.00,,,0.17,0.000000,,2013-08-27 03:58:00,
2013-08-26 21:03:00,58.0,-99.9,-100.00,West,262,1.0,4.0,0,0.08,,,0.21,0.000000,,2013-08-27 04:03:00,
2013-08-26 21:47:00,58.0,-99.9,-100.00,West,262,1.0,4.0,0,0.08,,,0.21,0.000000,,2013-08-27 04:47:00,
2013-08-26 21:54:00,58.0,-99.9,-100.00,West,262,1.0,4.0,0,0.08,,,0.21,0.000000,,2013-08-27 04:54:00,
2013-08-26 22:43:00,58.0,-99.9,-100.00,SSE,167,1.0,21.0,0,0.06,,,0.20,0.000000,,2013-08-27 05:43:00,
2013-08-26 22:52:00,58.0,-99.9,-100.00,SSE,167,1.0,21.0,0,0.06,,,0.20,0.000000,,2013-08-27 05:52:00,
2013-08-26 23:02:00,58.0,-99.9,-100.00,SSE,167,1.0,21.0,0,0.06,,,0.20,0.000000,,2013-08-27 06:02:00,
2013-08-26 23:22:00,55.0,-99.9,-100.00,NW,314,0.0,4.0,0,0.00,,,0.19,0.000000,,2013-08-27 06:22:00,
2013-08-26 23:32:00,55.0,-99.9,-100.00,NW,314,0.0,4.0,0,0.00,,,0.19,0.000000,,2013-08-27 06:32:00,
2013-08-26 23:42:00,55.0,-99.9,-100.00,NW,314,0.0,4.0,0,0.00,,,0.19,0.000000,,2013-08-27 06:42:00,
2013-08-26 23:52:00,55.0,-99.9,-100.00,NW,314,0.0,4.0,0,0.00,,,0.19,0.000000,,2013-08-27 06:52:00,